sat.trackr.live / text

‹ back to catalog

SKYSAT-C3

NORAD 41774 · 2016-058E

PAYLOAD ACTIVE UNKNOWN

§ Identity

Operator
Country
US
Launch date
2016-09-16
Launch site
FRGUI
Launch vehicle
Mass (kg)
RCS (m²)
0.36

Purposes: earth_obs

External: N2YO · Heavens-Above · Gunter

§ Orbital elements

Epoch: 2026-05-25T03:01:05.027232Z

Period
92.82 min
Inclination
96.9040°
Eccentricity
0.0002658
Mean motion
15.51448926 rev/d
Perigee alt
410.7 km
Apogee alt
414.3 km
Semi-major
6,790.6 km
B*
3.6843e-4
RAAN
176.8746°
Arg perigee
82.0747°
Mean anomaly
278.0808°
Rev number
54,253

§ Raw data

SKYSAT-C31 41774U 16058E   26145.12575263  .00021674  00000+0  36843-3 0  99982 41774  96.9040 176.8746 0002658  82.0747 278.0808 15.51448926542538

JSON: /api/v1/satellites/41774 · /tle

For live sub-satellite position, see the globe view (requires WebGL).

§ Visibility from observer

Set your observer location to see the next 7 days of passes ≥ 10°. The values pass through the URL so the page stays shareable.

No JS? Fill the form by hand. The geolocation button needs JavaScript.